Tracking 18785 objects as of 26-July-2017
HD Live streaming from Space Station
objects crossing your sky now
MAYAK may become the brightest orbital object in the night sky!
Where is MAYAK now?
How to spot MAYAK

NAVSTAR 28 (USA 85)

Track NAVSTAR 28 (USA 85) now!
NAVSTAR 28 (USA 85) is classified as:


NORAD ID: 22231
Int'l Code: 1992-079A
Perigee: 21,152.9 km
Apogee: 21,350.2 km
Inclination: 55.3 °
Period: 761.5 minutes
Semi major axis: 27622 km
RCS: 3.981 m2 (large)
Launch date: November 22, 1992
Source: United States (US)
Launch site: AIR FORCE EASTERN TEST RANGE (AFETR)
PRN:
Your satellite tracking list
Your tracking list is empty





NASA's NSSDC Master Catalog

Two Line Element Set (TLE):
1 22231U 92079A   17206.18862014 +.00000033 +00000-0 +00000-0 0  9999
2 22231 055.2789 225.6991 0035707 297.0354 062.6419 01.89107057000707
Source of the keplerian elements: AFSPC